User: anonymous   Login
Location: Brno
(49.2000°N, 16.6330°E)
Time: 00:31:32
(UTC+02:00)
Language:

CARTOSAT-1 - Orbit

View from above orbital plane
View from above orbital plane
View from above satellite
View from above satellite

Ground track
Ground track

The orbit data is extracted from the following two-line orbital elements,

1 28649U 05017A   16147.52071013  .00000300  00000-0  42940-4 0  9996
2 28649  97.8996 221.0332 0001157 173.3005 186.8230 14.83433097598658
Epoch (UTC): 26 May 2016 12:29:49
Eccentricity: 0.0001157
inclination: 97.8996°
perigee height: 618 km
apogee height: 619 km
right ascension of ascending node: 221.0332°
argument of perigee: 173.3005°
revolutions per day: 14.83433097
mean anomaly at epoch: 186.8230°
orbit number at epoch: 59865

The dashed part of the orbit path shows where the satellite is in the earth's shadow,  

DLR